User: anonymous   Login
Location: Mentone
(34.5413°N, 85.5351°W)
Time: 09:38:40
(UTC-06:00)
Language:

Transit 2A Rocket - Orbit

View from above orbital plane
View from above orbital plane
View from above satellite
View from above satellite

Ground track
Ground track

The orbit data is extracted from the following two-line orbital elements,

1 00047U 60007C   16337.51701058 -.00000009  00000-0  22971-4 0  9996
2 00047  66.6666  11.5988 0227125 170.9544 189.5763 14.41881397948714
Epoch (UTC): 02 December 2016 12:24:29
Eccentricity: 0.0227125
inclination: 66.6666°
perigee height: 590 km
apogee height: 914 km
right ascension of ascending node: 11.5988°
argument of perigee: 170.9544°
revolutions per day: 14.41881397
mean anomaly at epoch: 189.5763°
orbit number at epoch: 94871

The dashed part of the orbit path shows where the satellite is in the earth's shadow,  

DLR